Location: Haram ta Haram Freeway
(35.0583°N, 51.4202°E)
Time: 04:30:27
(UTC+04:30)

Tiangong - Visible Passes

Search period start: 01 August 2021 00:00
Search period end: 11 August 2021 00:00
Orbit: 373 x 386 km, 41.5° (Epoch: 31 July)

Date Brightness Start Highest point End Pass type
(mag) Time Alt. Az. Time Alt. Az. Time Alt. Az.
04 Aug 3.5 05:35:11 10° S 05:37:08 16° SE 05:39:07 10° ESE visible
06 Aug 2.5 05:09:21 18° SSW 05:10:58 28° SSE 05:13:43 10° E visible
07 Aug 3.9 04:10:56 12° ESE 04:10:56 12° ESE 04:11:33 10° ESE visible
07 Aug 1.0 05:43:04 10° WSW 05:46:11 82° NNW 05:49:19 10° ENE visible
08 Aug 1.3 04:44:34 49° S 04:44:49 51° SSE 04:47:52 10° ENE visible
09 Aug 4.3 03:46:02 11° E 03:46:02 11° E 03:46:10 10° E visible
09 Aug 1.6 05:18:07 19° W 05:20:07 50° NNW 05:23:11 10° ENE visible
10 Aug 2.2 04:19:32 43° ENE 04:19:32 43° ENE 04:21:47 10° ENE visible
